Location: Newark
(39.5667°N, 8.9833°E)
Time: 13:01:14
(UTC+00:00)

LightSail 2 - Pass Details

Date: 25 September 2019
Orbit: 707 x 722 km, 24.0° (Epoch: 18 October)

Event Time Altitude Azimuth Distance (km) Brightness Sun altitude
Exits shadow 04:26:00 - 224° (SW) 2,503 7.5 -10.1°
Reaches altitude 10° 04:27:35 10° 210° (SSW) 2,162 7.3 -9.8°
Maximum altitude 04:30:01 13° 182° (S) 1,937 7.3 -9.3°
Drops below altitude 10° 04:32:26 10° 153° (SSE) 2,161 7.9 -8.8°
Sets 04:36:05 0° 127° (SE) 3,080 9.2 -8.1°
